This demonstration page uses our WeatherBlox Daily Observations layout. Learn more.

Left ArrowRight Arrow

Hourly Observations for April 17, 2015

Temp ( °F °C ) Dew Point ( °F °C ) Humidity (%) Winds ( mph kmh ) Pressure ( in mb ) Visibility ( mi km ) Precip ( " mm )
12:02 am 00:02 Partly Cloudy with Mist and Fog 60 15.6 60 15.6 100 100 Calm 30.06 1018 1.75 2.816345 0 0
12:07 am 00:07 Partly Cloudy with Mist and Fog 60 15.6 59 15 96 96 Calm 30.06 1018 0.75 1.207005 0 0
12:17 am 00:17 Mostly Cloudy with Mist and Fog 60 15.6 60 15.6 100 100 Calm 30.06 1018 2 3.21868 0 0
12:38 am 00:38 Mostly Cloudy with Mist and Fog 60 15.6 60 15.6 100 100 Calm 30.06 1018 1.5 2.41401 0 0
12:53 am 00:53 Mostly Cloudy with Fog 60 15.6 60 15.6 100 100 Calm 30.09 1019 0.25 0.402335 0 0
1:11 am 01:11 Cloudy with Mist and Fog 60 15.6 60 15.6 100 100 Calm 30.06 1018 1.75 2.816345 0 0.0254
1:18 am 01:18 Cloudy with Mist and Fog 60 15.6 60 15.6 100 100 SE 3 6 30.06 1018 1.5 2.41401 0 0.0254
1:26 am 01:26 Cloudy with Light Rain 61 16.1 61 16.1 100 100 Calm 30.06 1018 2 3.21868 0 0.0254
1:34 am 01:34 Cloudy with Mist and Fog 61 16.1 61 16.1 100 100 Calm 30.06 1018 5 8.0467 0 0.0254
1:53 am 01:53 Cloudy with Mist and Fog 60 15.6 60 15.6 100 100 Calm 30.08 1019 4 6.43736 0 0.0254
2:26 am 02:26 Cloudy with Mist and Fog 61 16.1 61 16.1 100 100 Calm 30.06 1018 4 6.43736 0.01 0.254
2:41 am 02:41 Cloudy with Mist and Fog 61 16.1 61 16.1 100 100 Calm 30.06 1018 4 6.43736 0.01 0.254
2:49 am 02:49 Cloudy with Mist and Fog 63 17 61 16 94 94 NW 3 6 30.06 1018 4 6.43736 0.01 0.254
2:53 am 02:53 Cloudy with Mist and Fog 62 16.7 61 16.1 96 96 NW 3 6 30.07 1018 4 6.43736 0.01 0.254
3:05 am 03:05 Cloudy with Mist and Fog 62 16.7 62 16.7 100 100 Calm 30.06 1018 3 4.82802 0 0
3:26 am 03:26 Cloudy with Mist and Fog 63 17.2 62 16.7 97 97 W 6 9 30.06 1018 5 8.0467 0 0
3:51 am 03:51 Cloudy 63 17 63 17 100 100 W 3 6 30.06 1018 8 12.87472 0 0
3:53 am 03:53 Cloudy 63 17.2 62 16.7 97 97 Calm 30.08 1019 8 12.87472 0 0
4:06 am 04:06 Mostly Cloudy 62 16.7 61 16.1 96 96 WNW 6 9 30.06 1018 7 11.26538 0 0
4:28 am 04:28 Mostly Cloudy 62 16.7 60 15.6 93 93 WNW 5 7 30.06 1018 8 12.87472 0 0
4:48 am 04:48 Cloudy with Mist and Fog 61 16 61 16 100 100 WNW 3 6 30.06 1018 6 9.65604 0 0
4:53 am 04:53 Cloudy with Mist and Fog 61 16.1 60 15.6 97 97 Calm 30.09 1019 6 9.65604 0 0
5:22 am 05:22 Partly Cloudy with Mist and Fog 59 15 58 14.4 96 96 Calm 30.06 1018 5 8.0467 0 0
5:46 am 05:46 Clear with Mist and Fog 57 13.9 57 13.9 100 100 Calm 30.06 1018 2 3.21868 0 0
5:49 am 05:49 Clear with Mist and Fog 57 14 55 13 94 94 S 3 6 30.06 1018 1.5 2.41401 0 0
5:53 am 05:53 Clear with Mist and Fog 57 13.9 56 13.3 96 96 S 3 6 30.09 1019 1 1.60934 0 0
6:02 am 06:02 Mostly Cloudy with Mist and Fog 56 13.3 56 13.3 100 100 Calm 30.09 1019 0.75 1.207005 0 0
6:30 am 06:30 Mostly Cloudy with Fog 54 12.2 54 12.2 100 100 Calm 30.09 1019 0.25 0.402335 0 0
6:53 am 06:53 Mostly Cloudy with Fog 54 12.2 53 11.7 97 97 Calm 30.1 1019 0.25 0.402335 0 0
7:16 am 07:16 Mostly Cloudy with Fog 51 10.6 51 10.6 100 100 Calm 30.12 1020 5 8.0467 0 0
7:51 am 07:51 Mostly Cloudy with Fog 54 12 54 12 100 100 Calm 30.12 1020 5 8.0467 0 0
7:53 am 07:53 Mostly Cloudy with Fog 53 11.7 53 11.7 100 100 Calm 30.11 1020 5 8.0467 0 0
8:04 am 08:04 Mostly Cloudy with Mist and Fog 55 12.8 55 12.8 100 100 Calm 30.12 1020 1 1.60934 0 0
8:14 am 08:14 Partly Cloudy with Mist and Fog 57 13.9 57 13.9 100 100 Calm 30.12 1020 1.75 2.816345 0 0
8:23 am 08:23 Sunny with Mist and Fog 59 15 58 14.4 96 96 Calm 30.09 1019 2.5 4.02335 0 0
8:31 am 08:31 Sunny with Mist and Fog 59 15 58 14.4 96 96 Calm 30.09 1019 4 6.43736 0 0
8:53 am 08:53 Sunny with Mist and Fog 61 16.1 57 13.9 87 87 VRB 3 6 30.12 1020 5 8.0467 0 0
9:53 am 09:53 Sunny 63 17.2 54 12.2 73 73 NNW 7 11 30.13 1020 9 14.48406 0 0
10:53 am 10:53 Sunny 67 19.4 51 10.6 57 57 N 9 15 30.14 1021 10 16.0934 0 0
11:53 am 11:53 Sunny 69 20.6 48 8.9 47 47 undefined N/A 30.12 1020 10 16.0934 0 0
12:53 pm 12:53 Sunny 71 21.7 48 8.9 44 44 ENE 3 6 30.11 1020 10 16.0934 0 0
1:53 pm 13:53 Sunny 72 22.2 48 8.9 43 43 VRB 5 7 30.09 1019 10 16.0934 0 0
2:53 pm 14:53 Sunny 74 23.3 48 8.9 40 40 Calm 30.06 1018 10 16.0934 0 0
3:53 pm 15:53 Sunny 74 23.3 45 7.2 36 36 undefined N/A 30.04 1017 10 16.0934 0 0
4:53 pm 16:53 Sunny 75 23.9 45 7.2 34 34 VRB 6 9 30.03 1017 10 16.0934 0 0
5:53 pm 17:53 Sunny 75 23.9 46 7.8 36 36 Calm 30.02 1017 10 16.0934 0 0
6:53 pm 18:53 Sunny 75 23.9 43 6.1 32 32 Calm 30.01 1016 10 16.0934 0 0
7:53 pm 19:53 Sunny 68 20 54 12.2 61 61 Calm 30.01 1016 10 16.0934 0 0
8:53 pm 20:53 Hazy 60 15.6 51 10.6 72 72 Calm 30.02 1017 6 9.65604 0 0
9:53 pm 21:53 Clear 57 13.9 51 10.6 81 81 Calm 30.04 1017 10 16.0934 0 0
10:53 pm 22:53 Clear 57 13.9 53 11.7 87 87 Calm 30.05 1018 10 16.0934 0 0
11:53 pm 23:53 Clear 54 12.2 47 8.3 77 77 Calm 30.05 1018 10 16.0934 0 0

Powered by AerisWeather